Tracking 28794 objects as of 19-Apr-2024
HD Live streaming from Space Station
objects crossing your sky now

SL-12 R/B(2)

Track SL-12 R/B(2) now!


NORAD ID: 16214
Int'l Code: 1985-102D
Perigee: 35,599.3 km
Apogee: 35,789.3 km
Inclination: 10.8 °
Period: 1,431.0 minutes
Semi major axis: 42065 km
RCS: 1.9027 m2 (large)
Launch date: October 25, 1985
Source: Commonwealth of Independent States (former USSR) (CIS)
Launch site: TYURATAM MISSILE AND SPACE COMPLEX (TTMTR)

Note: This is a ROCKET BODY
Your satellite tracking list
Your tracking list is empty




NASA's NSSDC Master Catalog

Two Line Element Set (TLE):
1 16214U 85102D   24110.75791854  .00000110  00000-0  00000+0 0  9995
2 16214  10.7956 323.3392 0022589 139.2792  52.1608  1.00627544116995
Source of the keplerian elements: AFSPC